Home > Weather > Greenville > Past weeks

Flag for USA Weather for the Past 2 Weeks in Greenville, South Carolina, USA

Now
54 °F

Overcast.


Feels Like: 53 °F
Forecast: 52 / 72 °F
Wind: 5 mph from North

Location: Greenville Downtown Airport

Current Time: May 6, 2016 at 3:53:54 AM

Latest Report: May 6, 2016 at 2:53 AM


Visibility: 10 mi

Pressure: 29.77 "Hg

Humidity: 59%

Dew Point: 40 °F

Location of GreenvilleLocation

Historic Weather in Greenville — Graph

°F

Greenville Temperature Yesterday

Maximum temperature yesterday: 64 °F (at 12:53 PM)
Minimum temperature yesterday: 52 °F (at 5:53 AM)
Average temperature yesterday: 57 °F

High & Low Weather Summary for the Past Weeks

 TemperatureHumidityPressure
High86 °F (Apr 29, 3:53 PM)96% (May 2, 8:02 AM)30.18 "Hg (May 2, 8:02 AM)
Low52 °F (Apr 24, 6:53 AM)27% (Apr 29, 1:53 PM)29.61 "Hg (May 5, 2:53 AM)
Average69 °F62%29.92 "Hg
* Reported Apr 21 2:53 AM — May 6 2:53 AM, Greenville, Weather by CustomWeather, © 2016

Note: Actual official high and low records may vary slightly from our data, if they occured in-between our weather recording intervals... More about our weather records

Advertising

Greenville Weather History for the Previous 24 Hours

Scroll right to see more
 ConditionsComfort  
Time TempWeatherWind HumidityBarometerVisibility
2:53 AM
Fri, May 6
54 °FOvercast.5 mph59%29.77 "Hg10 mi
1:53 AM53 °FOvercast.5 mph61%29.78 "Hg10 mi
12:53 AM53 °FLight rain. Mostly cloudy.6 mph61%29.78 "Hg10 mi
11:53 PM
Thu, May 5
53 °FLight rain. Mostly cloudy.3 mph66%29.78 "Hg10 mi
10:53 PM53 °FLight rain. Overcast.6 mph66%29.78 "Hg10 mi
9:53 PM55 °FMostly cloudy.7 mph53%29.77 "Hg10 mi
8:53 PM56 °FScattered clouds.9 mph51%29.74 "Hg10 mi
7:53 PM57 °FSunny.12 mph47%29.72 "Hg10 mi
6:53 PM61 °FSunny.13 mph38%29.69 "Hg10 mi
5:53 PM63 °FPassing clouds.15 mph33%29.67 "Hg10 mi
4:53 PM62 °FSunny.10 mph41%29.66 "Hg10 mi
3:53 PM54 °FLight rain. Mostly cloudy.8 mph67%29.68 "Hg10 mi
2:53 PM60 °FPartly sunny.15 mph41%29.67 "Hg10 mi
1:53 PM62 °FMostly cloudy.10 mph31%29.66 "Hg10 mi
12:53 PM64 °FPartly sunny.12 mph29%29.66 "Hg10 mi
11:53 AM61 °FPassing clouds.15 mph34%29.67 "Hg10 mi
10:53 AM59 °FSunny.12 mph38%29.67 "Hg10 mi
9:53 AM59 °FScattered clouds.9 mph44%29.67 "Hg10 mi
8:53 AM56 °FSunny.5 mph49%29.66 "Hg10 mi
7:53 AM54 °FSunny.8 mph55%29.65 "Hg10 mi
6:53 AM52 °FPassing clouds.12 mph59%29.64 "Hg10 mi
5:53 AM52 °FPassing clouds.5 mph64%29.62 "Hg10 mi
4:53 AM53 °FClear.7 mph59%29.61 "Hg10 mi
3:53 AM55 °FPassing clouds.9 mph53%29.61 "Hg10 mi
Weather by CustomWeather, © 2016

See weather overviewHow to use our weather pages